DELTA 1 DEB, 5971

Orbit data source: Space-Track

DELTA 1 DEB, 5971 is space debris in SSO originally from a launch on Thu, 26 Jan 1967 UTC launched from the Air Force Western Test Range (AFWTR). Debris objects in space refer to the collection of defunct objects orbiting the Earth. Examples of debris include non-operational satellites, rocket bodies, and fragments generated from explosions, collisions, or faulty payload assembly.

Loading next visibility...
Identifier
5971, 1967-006E
Orbit
SSO
Country
Flag of USUS
Related business
Manufacturer
Unknown
Mission
Spacecraft
Bus & Motor
Unknown
Mass
Unknown
Launch date (UTC)
1967-01-26 (59 years ago)
Launch vehicle
Unknown
Launch site
Air Force Western Test Range (AFWTR)
Object type
Payload
Rocket body
Debris
Shape & HBR
Unknown shape, 0.1 m
Radar Cross Section
Small (<0.1 m²)

Expand to show TLE details & history
Last TLE update: 6 hours ago

TLE from 6 hours ago
0 DELTA 1 DEB
1  5971U 67006E   26036.07068354 -.00000026  00000-0  10825-3 0  9999
2  5971 101.9386 334.5058 0112598 232.6075 196.6320 12.73479932744279
Epoch: 2026-02-05T01:41Z
TLE epoch observation values (Epoch: 2026-02-05T01:41:47.057Z)
Latitude
65.95317°
Longitude
145.69789°
Altitude
1,462.679 km
Speed
7.099 km/s
True Right ascension
20h 25m 29s
True Declination
65° 50' 11"
Sunlit
Object was in daylight at epoch
Visualization orbit readout
Latitude
Unknown
Longitude
Unknown
Altitude
Unknown
Speed
Unknown
Apparent Right ascension
Unknown
Apparent Declination
Unknown
Sunlit
N/A
Visualization observer readout
Local Sidereal Time
10:11:28
Azimuth
Unknown
Elevation
Unknown
Doppler factor
Unknown
Orbital elements
Apogee altitude
1,452.513 km
Perigee altitude
1,278.134 km
Semi-major axis
7,743.461 km
Eccentricity
0.01126
Inclination
101.9386°
RAAN
334.5058°
Arg. of periapsis
232.6075°
True anomaly
196.26761°
Mean anomaly
196.632°
Eccentric anomaly
196.44932°
Mean motion
3.18523 °/min
Orbital period
113.02 mins
BSTAR
0.00010825
Loading maneuver chart data...
Computing Atmospheric mass density...
Loading historical data...
Loading historical data...
Loading historical data...
Loading historical data...
Loading historical data...
Loading historical data...
Loading historical data...
Other satellites on launch #6 in the year 1967 (1967-01-26 UTC)

Documentation

Showing up to 5 results
|